Location: ????????
(55.0097°N, 38.5678°E)
Time: 00:42:08
(UTC+00:00)

NOSS 3-1 (C) - Pass Details

Date: 22 December 2025
Orbit: 618 x 1583 km, 63.4° (Epoch: 10 January)

Event Time Altitude Azimuth Distance (km) Brightness Sun altitude
Rises 17:44:19 0° 260° (W) 3,113 6.9 -38.8°
Reaches altitude 10° 17:46:34 10° 267° (W) 2,287 6.1 -39.1°
Enters shadow 17:48:26 23° 278° (W) 1,666 5.2 -39.4°
